Weather reports worldwide

Advertisment
Barranda, Spain (8365): temperature & dewpoint: 12.01.2018 07:00:00 - 18.01.2018 07:00:00 (CET)Barranda, Spain (8365): wind speed & gusts: 12.01.2018 07:00:00 - 18.01.2018 07:00:00 (CET)Barranda, Spain (8365): wind direction: 12.01.2018 07:00:00 - 18.01.2018 07:00:00 (CET)Barranda, Spain (8365): reduced air pressure: 12.01.2018 07:00:00 - 18.01.2018 07:00:00 (CET)Barranda, Spain (8365): visibility: 12.01.2018 07:00:00 - 18.01.2018 07:00:00 (CET)Barranda, Spain (8365): sunshine duration: 12.01.2018 07:00:00 - 18.01.2018 07:00:00 (CET)Barranda, Spain (8365): precipitation: 12.01.2018 07:00:00 - 18.01.2018 07:00:00 (CET)
Date & Time tt [°C] td [°C] ff [km/h] ff [kn] fx [km/h] fx [kn] dd ppp [hPa] vv [km] sd [min] rr [mm]
18.01.2018 07:00:00 - - - - - - - - - - -
18.01.2018 06:00:00 2,8 0,9 6 3 19 10 WSW 1027,5 20 0 0,0
18.01.2018 05:00:00 3,1 0,4 4 2 16 9 WSW 1027,8 20 0 0,0
18.01.2018 04:00:00 2,9 0,9 5 3 9 5 WSW 1027,9 20 0 0,0
18.01.2018 03:00:00 3,4 0,2 5 3 20 11 WNW 1027,6 20 0 0,0
18.01.2018 02:00:00 3,2 -0,3 4 2 17 9 W 1027,9 20 0 0,0
18.01.2018 01:00:00 4,9 -0,5 10 5 16 9 SW 1027,6 20 0 -
18.01.2018 00:00:00 5,1 -1,0 9 5 21 12 WSW 1027,5 20 0 0,0
17.01.2018 23:00:00 5,7 -0,5 6 3 12 7 WSW 1027,2 20 0 0,0
17.01.2018 22:00:00 6,0 0,0 5 3 12 7 WNW 1027,1 20 0 0,0
17.01.2018 21:00:00 6,4 0,6 6 3 8 5 W 1026,6 20 0 0,0
17.01.2018 20:00:00 8,1 1,5 3 1 - - W 1025,6 20 - -
17.01.2018 19:00:00 10,5 -1,0 4 2 9 5 NNE 1024,1 20 0 -
17.01.2018 18:00:00 14,6 -1,2 6 3 21 11 NE 1022,6 20 0 0,0
17.01.2018 17:00:00 17,6 -4,5 13 7 20 11 ENE 1021,2 20 14 0,0
17.01.2018 16:00:00 17,7 2,1 10 6 25 13 ENE 1021,2 20 5 0,0
17.01.2018 15:00:00 18,1 1,5 14 7 - - NE 1020,8 20 39 0,0
17.01.2018 14:00:00 17,6 3,0 10 5 20 11 ENE 1021,6 20 53 0,0
17.01.2018 13:00:00 17,5 1,9 4 2 10 5 E 1022,3 20 60 -
17.01.2018 12:00:00 16,3 1,9 5 3 11 6 SE 1023,5 20 60 0,0
17.01.2018 11:00:00 13,1 0,9 5 3 12 7 SW 1024,5 20 60 0,0
17.01.2018 10:00:00 9,1 0,4 3 2 11 6 WSW 1025,4 20 60 0,0
17.01.2018 09:00:00 4,2 -0,7 2 1 17 9 NNW 1026,2 20 16 0,0
17.01.2018 08:00:00 4,7 -1,4 8 4 23 12 W 1025,8 20 0 0,0
17.01.2018 07:00:00 5,1 -1,7 12 6 23 12 W 1025,1 20 0 -
17.01.2018 06:00:00 4,6 -1,4 8 4 26 14 W 1025,1 20 0 0,0
17.01.2018 05:00:00 5,3 -0,7 12 7 24 13 W 1025,2 20 0 0,0
17.01.2018 04:00:00 6,0 -0,3 13 7 26 14 W 1025,5 20 0 0,0
17.01.2018 03:00:00 6,0 0,4 16 9 - - WSW 1025,5 20 0 0,0
17.01.2018 02:00:00 6,4 0,9 15 8 29 15 WSW 1025,8 20 0 0,0
17.01.2018 01:00:00 6,7 1,5 18 10 31 17 W 1026,2 20 0 -
17.01.2018 00:00:00 7,3 2,3 14 8 27 15 WSW 1026,5 20 0 0,0
16.01.2018 23:00:00 7,6 2,9 16 9 24 13 W 1026,5 20 0 0,0
16.01.2018 22:00:00 8,2 3,4 15 8 22 12 WSW 1026,4 20 0 0,0
16.01.2018 21:00:00 8,2 3,9 7 4 23 12 WSW 1026,5 20 0 0,0
16.01.2018 20:00:00 10,2 4,3 13 7 22 12 WSW 1026,0 20 0 0,0
16.01.2018 19:00:00 11,7 4,6 10 5 15 8 W 1025,4 20 0 -
16.01.2018 18:00:00 13,2 5,1 4 2 8 4 NW 1024,6 20 0 0,0
16.01.2018 17:00:00 16,5 5,1 4 2 14 7 SW 1023,9 20 13 0,0
16.01.2018 16:00:00 16,4 4,5 8 4 26 14 S 1024,1 20 4 0,0
16.01.2018 15:00:00 17,0 3,9 9 5 25 13 S 1024,3 20 28 0,0
16.01.2018 14:00:00 16,3 3,4 8 4 19 10 S 1025,6 20 50 0,0
16.01.2018 13:00:00 15,4 2,9 9 5 21 11 SSW 1026,5 20 60 -
16.01.2018 12:00:00 13,2 2,5 9 5 21 11 WSW 1028,3 20 60 0,0
16.01.2018 11:00:00 10,5 1,9 10 5 31 17 WSW 1029,0 20 60 0,0
16.01.2018 10:00:00 7,1 -0,7 14 8 27 14 WSW 1029,6 20 60 0,0
16.01.2018 09:00:00 3,6 -2,0 13 7 24 13 WSW 1030,2 20 14 0,0
16.01.2018 08:00:00 2,4 -3,0 16 8 24 13 WSW 1030,3 20 0 0,0
16.01.2018 07:00:00 2,8 -3,3 16 9 22 12 WSW 1030,1 20 0 -
16.01.2018 06:00:00 2,1 -3,3 15 8 26 14 WSW 1030,1 20 0 0,0
16.01.2018 05:00:00 1,9 -2,7 14 8 25 14 WSW 1030,4 20 0 0,0
16.01.2018 04:00:00 1,7 -2,2 13 7 22 12 WSW 1030,9 20 0 0,0
16.01.2018 03:00:00 1,6 -2,0 8 5 17 9 W 1031,0 20 0 0,0
16.01.2018 02:00:00 2,1 -1,4 10 6 21 11 WSW 1031,2 20 0 0,0
16.01.2018 01:00:00 2,3 -1,2 10 5 17 9 WSW 1031,4 20 0 -
16.01.2018 00:00:00 2,5 -1,0 8 4 23 12 WSW 1031,8 20 0 0,0
15.01.2018 23:00:00 2,9 -0,5 15 8 22 12 WSW 1031,2 20 0 0,0
15.01.2018 22:00:00 3,6 0,0 13 7 19 11 WSW 1031,0 20 0 0,0
15.01.2018 21:00:00 4,3 0,2 12 6 19 10 WSW 1030,3 20 0 0,0
15.01.2018 20:00:00 4,8 0,6 9 5 13 7 WSW 1029,5 20 0 0,0
15.01.2018 19:00:00 5,7 0,6 7 4 13 7 WSW 1028,0 20 0 -
15.01.2018 18:00:00 7,4 0,6 5 3 13 7 WSW 1027,2 20 0 0,0
15.01.2018 17:00:00 8,9 1,3 5 3 17 9 W 1026,7 20 1 0,0
15.01.2018 16:00:00 9,4 1,3 4 2 12 6 NNW 1025,9 20 0 0,0
15.01.2018 15:00:00 9,1 1,5 6 3 17 9 N 1025,8 20 0 0,0
15.01.2018 14:00:00 8,5 2,1 10 5 23 13 NE 1026,1 20 30 0,0
15.01.2018 13:00:00 9,1 1,9 9 5 21 12 ENE 1026,3 20 53 -
15.01.2018 12:00:00 7,5 3,6 8 4 21 11 E 1027,3 20 25 0,0
15.01.2018 11:00:00 7,8 2,5 8 5 19 10 NE 1026,4 20 60 0,0
15.01.2018 10:00:00 5,9 3,0 4 2 18 10 E 1025,9 20 3 0,0
15.01.2018 09:00:00 4,1 1,9 6 3 19 11 N 1025,8 20 0 0,0
15.01.2018 08:00:00 3,7 2,1 8 5 19 10 N 1025,1 20 0 0,0
15.01.2018 07:00:00 3,0 1,9 4 2 9 5 SSW 1024,6 20 0 -
15.01.2018 06:00:00 3,2 1,9 1 1 5 3 W 1024,2 20 0 0,4
15.01.2018 05:00:00 3,3 1,9 5 3 12 7 S 1023,7 20 0 2,0
15.01.2018 04:00:00 3,6 2,1 4 2 10 6 NE 1023,3 13 0 0,2
15.01.2018 03:00:00 3,5 1,9 3 2 13 7 E 1022,8 20 0 1,2
15.01.2018 02:00:00 3,3 1,9 5 3 12 7 SSW 1022,9 20 0 0,4
15.01.2018 01:00:00 3,4 2,1 5 3 9 5 SW 1023,0 19 0 -
15.01.2018 00:00:00 3,4 1,9 5 3 12 7 WSW 1022,8 12 0 1,4
14.01.2018 23:00:00 3,6 1,9 4 2 9 5 WSW 1021,9 20 0 0,8
14.01.2018 22:00:00 3,6 1,9 4 2 17 9 NNW 1021,6 16 0 1,4
14.01.2018 21:00:00 3,9 1,9 8 4 16 9 NNE 1021,0 7 0 1,8
14.01.2018 20:00:00 4,5 2,9 4 2 7 4 ENE 1020,3 11 0 1,0
14.01.2018 19:00:00 5,1 3,4 2 1 4 2 SE 1019,5 13 0 -
14.01.2018 18:00:00 5,5 3,8 3 2 6 3 WNW 1019,3 11 0 0,6
14.01.2018 17:00:00 5,8 3,0 4 2 21 11 SE 1018,7 20 0 0,2
14.01.2018 16:00:00 6,5 4,3 6 4 13 7 NNW 1018,1 12 0 1,2
14.01.2018 15:00:00 8,1 1,5 6 3 17 9 NE 1017,5 17 0 0,0
14.01.2018 14:00:00 9,4 1,3 6 4 14 7 E 1017,5 20 0 0,0
14.01.2018 13:00:00 10,1 0,6 4 2 14 8 E 1018,3 20 45 -
14.01.2018 12:00:00 8,3 1,7 5 3 22 12 SSE 1019,6 20 14 0,0
14.01.2018 11:00:00 6,1 0,6 9 5 21 11 WSW 1020,7 20 2 0,0
14.01.2018 10:00:00 4,9 0,0 9 5 17 9 WSW 1020,7 20 18 0,0
14.01.2018 09:00:00 4,1 -0,5 7 4 19 11 SW 1020,6 20 13 0,0
14.01.2018 08:00:00 3,7 -1,2 8 4 21 11 W 1020,6 20 0 0,0
14.01.2018 07:00:00 3,2 -1,0 14 8 24 13 WSW 1021,0 20 0 -
14.01.2018 06:00:00 1,4 -1,4 5 3 12 6 W 1021,0 20 0 0,0
14.01.2018 05:00:00 3,5 -1,7 8 4 15 8 WSW 1020,8 20 0 0,0
14.01.2018 04:00:00 2,4 -1,4 6 3 11 6 W 1020,9 20 0 0,0
14.01.2018 03:00:00 1,4 -2,0 4 2 11 6 WSW 1021,1 20 0 0,0
14.01.2018 02:00:00 2,0 -1,4 6 3 10 6 WNW 1021,1 20 0 0,0
14.01.2018 01:00:00 3,2 -0,5 6 3 12 6 WNW 1021,0 20 0 -
14.01.2018 00:00:00 3,9 0,0 7 4 12 6 W 1020,9 20 0 0,0
13.01.2018 23:00:00 3,4 0,2 4 2 12 6 W 1020,8 20 0 0,0
13.01.2018 22:00:00 4,6 0,4 4 2 15 8 SW 1020,2 20 0 0,0
13.01.2018 21:00:00 6,7 0,4 7 4 17 9 SSW 1019,4 20 0 0,0
13.01.2018 20:00:00 7,7 -0,5 9 5 17 9 SW 1018,7 20 0 0,0
13.01.2018 19:00:00 7,1 -0,3 5 3 10 5 SW 1018,6 20 0 -
13.01.2018 18:00:00 7,8 -0,3 3 1 11 6 SSE 1018,9 20 0 0,0
13.01.2018 17:00:00 8,7 -1,0 6 4 14 8 E 1018,7 20 3 0,0
13.01.2018 16:00:00 9,5 -1,0 7 4 14 8 E 1017,9 20 0 0,0
13.01.2018 15:00:00 9,2 -1,0 6 3 11 6 E 1018,0 20 0 0,0
13.01.2018 14:00:00 8,8 -1,0 5 3 13 7 ENE 1018,4 20 0 0,0
13.01.2018 13:00:00 10,1 -2,2 5 3 18 10 ESE 1019,0 20 0 -
13.01.2018 12:00:00 10,4 -4,2 10 6 17 9 SW 1020,3 20 53 0,0
13.01.2018 11:00:00 5,2 -2,0 1 1 4 2 W 1022,2 20 22 0,0
13.01.2018 10:00:00 2,1 -2,2 2 1 5 3 NNE 1022,7 20 0 0,0
13.01.2018 09:00:00 0,4 -3,3 2 1 5 3 NNW 1023,5 20 0 0,0
13.01.2018 08:00:00 0,7 -4,5 6 3 18 10 WSW 1023,2 20 0 0,0
13.01.2018 07:00:00 -0,4 -4,2 3 1 21 11 W 1023,3 20 0 -
13.01.2018 06:00:00 -0,5 -3,9 2 1 20 11 W 1023,7 20 0 0,0
13.01.2018 05:00:00 -0,9 -4,5 4 2 11 6 WSW 1024,4 20 0 0,0
13.01.2018 04:00:00 0,4 -4,2 3 2 19 10 W 1024,8 20 0 0,0
13.01.2018 03:00:00 1,8 -4,2 11 6 17 9 W 1024,4 20 0 0,0
13.01.2018 02:00:00 2,1 -3,6 8 4 14 8 WSW 1024,8 20 0 0,0
13.01.2018 01:00:00 3,3 -2,7 8 5 20 11 WSW 1025,4 20 0 -
13.01.2018 00:00:00 4,2 -2,7 8 4 20 11 WSW 1025,7 20 0 0,0
12.01.2018 23:00:00 4,8 -1,7 8 4 12 6 WSW 1025,8 20 0 0,0
12.01.2018 22:00:00 4,7 -1,7 6 3 12 6 WSW 1026,1 20 0 0,0
12.01.2018 21:00:00 4,9 -2,2 5 3 11 6 W 1026,0 20 0 0,0
12.01.2018 20:00:00 4,5 -2,7 4 2 11 6 NW 1025,8 20 0 0,0
12.01.2018 19:00:00 7,1 -3,6 8 4 11 6 WNW 1024,6 20 0 -
12.01.2018 18:00:00 9,2 -2,5 6 3 9 5 WNW 1023,5 20 0 0,0
12.01.2018 17:00:00 12,2 -4,5 6 3 14 7 ENE 1022,5 20 4 0,0
12.01.2018 16:00:00 12,4 -4,8 8 5 16 9 E 1022,3 20 0 0,0
12.01.2018 15:00:00 12,9 -4,2 8 4 18 10 ENE 1022,4 20 6 0,0
12.01.2018 14:00:00 13,3 -5,4 5 3 16 8 ESE 1023,1 20 44 0,0
12.01.2018 13:00:00 12,9 -3,0 10 5 23 12 SW 1024,0 20 60 -
12.01.2018 12:00:00 12,0 -3,0 10 5 18 10 WSW 1025,2 20 60 0,0
12.01.2018 11:00:00 10,7 -4,2 9 5 24 13 NNW 1025,4 20 60 0,0
12.01.2018 10:00:00 9,0 -3,0 6 3 18 10 W 1025,3 20 60 0,0
12.01.2018 09:00:00 6,4 -3,0 9 5 18 10 W 1025,9 20 15 0,0
12.01.2018 08:00:00 3,3 -3,3 9 5 19 10 WSW 1026,6 20 0 0,0
12.01.2018 07:00:00 5,2 -4,5 16 9 35 19 SW 1026,1 20 0 -

tt = temperature
td = dewpoint
ff = wind speed
fx = gusts
dd = wind direction
ppp = reduced air pressure
vv = visibility
sd = sunshine duration
rr = precipitation

Next stations